When you browse on this site, cookies collect data to enhance your experience and personalize the content and advertising you see.
Visit our Privacy Policy to learn more. By continuing to use the site, you agree to this use of cookies and data.
  • Em Portugal
  • Lista de países
  • Para 7 dias
  • Temperatura da água
  • Mapas de satélite
  • Mapa do tempo
  • Widgets de tempo
  • user-avatar
    Iniciar Sessão

    Previsão horária em Timonova

    Hoje, 20 Fevereiro, Quarta-feira

    Tempo Temperatura Precipitação Vento Pressão Humidade
    00:00 -9°C° 0 mm 6 m/s 739 mmHg 85%
    01:00 -9°C° 0 mm 6 m/s 738 mmHg 86%
    02:00 -8°C° 0 mm 6 m/s 738 mmHg 86%
    03:00 -8°C° 0 mm 6 m/s 737 mmHg 87%
    04:00 -8°C° 0 mm 6 m/s 737 mmHg 88%
    05:00 -6°C° 0 mm 6 m/s 736 mmHg 90%
    06:00 -6°C° 0 mm 6 m/s 736 mmHg 90%
    07:00 -5°C° 0 mm 6 m/s 735 mmHg 91%
    08:00 -5°C° 0 mm 6 m/s 735 mmHg 92%
    09:00 -4°C° 0 mm 6 m/s 735 mmHg 93%
    10:00 -3°C° 0 mm 6 m/s 735 mmHg 93%
    11:00 -2°C° 0 mm 6 m/s 734 mmHg 94%
    12:00 -2°C° 0 mm 6 m/s 734 mmHg 95%
    13:00 -2°C° 0 mm 6 m/s 734 mmHg 97%
    14:00 -1°C° 0 mm 5 m/s 734 mmHg 99%
    15:00 -1°C° 0 mm 5 m/s 733 mmHg 97%
    16:00 -1°C° 0 mm 5 m/s 733 mmHg 96%
    17:00 -1°C° 0 mm 5 m/s 733 mmHg 95%
    18:00 -1°C° 0.1 mm 5 m/s 733 mmHg 94%
    19:00 -1°C° 0.1 mm 5 m/s 733 mmHg 93%
    20:00 -1°C° 0.1 mm 5 m/s 733 mmHg 92%
    21:00 -2°C° 0 mm 6 m/s 732 mmHg 91%
    22:00 -2°C° 0 mm 6 m/s 732 mmHg 91%
    23:00 -2°C° 0 mm 7 m/s 731 mmHg 90%

    Amanhã, 21 Fevereiro, Quinta-feira

    Tempo Temperatura Precipitação Vento Pressão Humidade
    00:00 -2°C° 0.3 mm 7 m/s 731 mmHg 90%
    01:00 -2°C° 0.3 mm 7 m/s 730 mmHg 90%
    02:00 -2°C° 0.3 mm 7 m/s 730 mmHg 90%
    03:00 -4°C° 0.2 mm 6 m/s 730 mmHg 88%
    04:00 -6°C° 0.2 mm 6 m/s 730 mmHg 85%
    05:00 -10°C° 0.2 mm 5 m/s 729 mmHg 83%
    06:00 -8°C° 0.1 mm 5 m/s 730 mmHg 84%
    07:00 -9°C° 0.1 mm 6 m/s 731 mmHg 84%
    08:00 -8°C° 0.1 mm 6 m/s 731 mmHg 85%
    09:00 -8°C° 0.1 mm 6 m/s 731 mmHg 84%
    10:00 -8°C° 0.1 mm 7 m/s 732 mmHg 83%
    11:00 -8°C° 0.1 mm 7 m/s 732 mmHg 83%
    12:00 -8°C° 0.1 mm 7 m/s 732 mmHg 82%
    13:00 -8°C° 0.1 mm 7 m/s 732 mmHg 82%
    14:00 -8°C° 0.1 mm 7 m/s 732 mmHg 82%
    15:00 -8°C° 0.2 mm 7 m/s 733 mmHg 83%
    16:00 -8°C° 0.2 mm 7 m/s 733 mmHg 85%
    17:00 -8°C° 0.2 mm 8 m/s 733 mmHg 87%
    18:00 -8°C° 0.1 mm 7 m/s 734 mmHg 86%
    19:00 -8°C° 0.1 mm 7 m/s 734 mmHg 85%
    20:00 -9°C° 0.1 mm 7 m/s 735 mmHg 85%
    21:00 -11°C° 0 mm 7 m/s 736 mmHg 85%
    22:00 -10°C° 0 mm 6 m/s 736 mmHg 85%
    23:00 -11°C° 0 mm 6 m/s 737 mmHg 86%

    Depois de amanhã, 22 Fevereiro, Sexta-feira

    Tempo Temperatura Precipitação Vento Pressão Humidade
    00:00 -11°C° 0 mm 6 m/s 737 mmHg 85%
    01:00 -12°C° 0 mm 6 m/s 737 mmHg 85%
    02:00 -14°C° 0 mm 6 m/s 738 mmHg 85%
    03:00 -14°C° 0 mm 6 m/s 738 mmHg 84%
    04:00 -14°C° 0 mm 5 m/s 738 mmHg 84%
    05:00 -15°C° 0 mm 5 m/s 739 mmHg 84%
    06:00 -17°C° 0 mm 5 m/s 739 mmHg 84%
    07:00 -17°C° 0 mm 5 m/s 740 mmHg 84%
    08:00 -17°C° 0 mm 6 m/s 740 mmHg 84%
    09:00 -16°C° 0 mm 6 m/s 741 mmHg 82%
    10:00 -17°C° 0 mm 7 m/s 741 mmHg 80%
    11:00 -15°C° 0 mm 7 m/s 741 mmHg 78%
    12:00 -15°C° 0.1 mm 7 m/s 741 mmHg 77%
    13:00 -15°C° 0.1 mm 7 m/s 742 mmHg 77%
    14:00 -15°C° 0.1 mm 7 m/s 742 mmHg 77%
    15:00 -15°C° 0 mm 7 m/s 742 mmHg 79%
    16:00 -15°C° 0 mm 6 m/s 743 mmHg 82%
    17:00 -15°C° 0 mm 6 m/s 743 mmHg 84%
    18:00 -15°C° 0.1 mm 5 m/s 743 mmHg 86%
    19:00 -15°C° 0.1 mm 5 m/s 744 mmHg 87%
    20:00 -15°C° 0.1 mm 4 m/s 744 mmHg 88%
    21:00 -15°C° 0 mm 4 m/s 745 mmHg 88%
    22:00 -16°C° 0 mm 4 m/s 745 mmHg 88%
    23:00 -17°C° 0 mm 4 m/s 746 mmHg 89%

    23 Fevereiro, Sábado

    Tempo Temperatura Precipitação Vento Pressão Humidade
    00:00 -16°C° 0 mm 4 m/s 746 mmHg 88%
    01:00 -17°C° 0 mm 5 m/s 747 mmHg 88%
    02:00 -17°C° 0 mm 5 m/s 747 mmHg 88%
    03:00 -18°C° 0 mm 5 m/s 748 mmHg 88%
    04:00 -18°C° 0 mm 5 m/s 748 mmHg 89%
    05:00 -18°C° 0 mm 4 m/s 748 mmHg 89%
    06:00 -18°C° 0 mm 4 m/s 749 mmHg 89%
    07:00 -18°C° 0 mm 4 m/s 749 mmHg 90%
    08:00 -18°C° 0 mm 4 m/s 750 mmHg 90%
    09:00 -17°C° 0 mm 4 m/s 750 mmHg 89%
    10:00 -17°C° 0 mm 4 m/s 751 mmHg 87%
    11:00 -16°C° 0 mm 4 m/s 751 mmHg 86%
    12:00 -15°C° 0 mm 4 m/s 751 mmHg 86%
    13:00 -15°C° 0 mm 4 m/s 751 mmHg 86%
    14:00 -14°C° 0 mm 4 m/s 751 mmHg 86%
    15:00 -14°C° 0 mm 3 m/s 751 mmHg 87%
    16:00 -14°C° 0 mm 3 m/s 751 mmHg 89%
    17:00 -13°C° 0 mm 2 m/s 752 mmHg 91%
    18:00 -13°C° 0 mm 2 m/s 752 mmHg 91%
    19:00 -14°C° 0 mm 2 m/s 752 mmHg 92%
    20:00 -15°C° 0 mm 3 m/s 752 mmHg 92%
    21:00 -14°C° 0 mm 2 m/s 752 mmHg 92%
    22:00 -15°C° 0 mm 2 m/s 752 mmHg 93%
    23:00 -16°C° 0 mm 2 m/s 752 mmHg 93%

    24 Fevereiro, Domingo

    Tempo Temperatura Precipitação Vento Pressão Humidade
    00:00 -17°C° 0 mm 2 m/s 752 mmHg 93%
    01:00 -15°C° 0 mm 1 m/s 752 mmHg 93%
    02:00 -15°C° 0 mm 1 m/s 752 mmHg 93%
    03:00 -16°C° 0 mm 1 m/s 752 mmHg 93%
    04:00 -16°C° 0 mm 1 m/s 752 mmHg 93%
    05:00 -16°C° 0 mm 1 m/s 752 mmHg 92%
    06:00 -16°C° 0 mm 1 m/s 752 mmHg 91%
    07:00 -15°C° 0 mm 1 m/s 752 mmHg 91%
    08:00 -15°C° 0 mm 1 m/s 752 mmHg 90%
    09:00 -13°C° 0 mm 0 m/s 752 mmHg 86%
    10:00 -12°C° 0 mm 0 m/s 752 mmHg 83%
    11:00 -10°C° 0 mm 0 m/s 752 mmHg 80%
    12:00 -10°C° 0 mm 0 m/s 752 mmHg 78%
    13:00 -9°C° 0 mm 0 m/s 752 mmHg 77%
    14:00 -8°C° 0 mm 1 m/s 752 mmHg 76%
    15:00 -10°C° 0 mm 0 m/s 752 mmHg 78%
    16:00 -11°C° 0 mm 0 m/s 752 mmHg 80%
    17:00 -12°C° 0 mm 0 m/s 752 mmHg 82%
    18:00 -13°C° 0 mm 0 m/s 752 mmHg 82%
    19:00 -13°C° 0 mm 0 m/s 752 mmHg 82%
    20:00 -13°C° 0 mm 0 m/s 752 mmHg 81%
    21:00 -13°C° 0 mm 0 m/s 752 mmHg 83%
    22:00 -13°C° 0 mm 0 m/s 752 mmHg 84%
    23:00 -13°C° 0 mm 0 m/s 752 mmHg 85%

    25 Fevereiro, Segunda-feira

    Tempo Temperatura Precipitação Vento Pressão Humidade
    00:00 -13°C° 0 mm 0 m/s 752 mmHg 87%
    01:00 -13°C° 0 mm 0 m/s 752 mmHg 88%
    02:00 -13°C° 0 mm 0 m/s 752 mmHg 90%
    03:00 -13°C° 0 mm 1 m/s 752 mmHg 91%
    04:00 -12°C° 0 mm 1 m/s 751 mmHg 93%
    05:00 -12°C° 0 mm 1 m/s 751 mmHg 94%
    06:00 -12°C° 0 mm 1 m/s 751 mmHg 94%
    07:00 -11°C° 0 mm 1 m/s 751 mmHg 95%
    08:00 -13°C° 0 mm 2 m/s 750 mmHg 95%
    09:00 -10°C° 0 mm 2 m/s 750 mmHg 95%
    10:00 -9°C° 0 mm 2 m/s 749 mmHg 94%
    11:00 -7°C° 0 mm 2 m/s 749 mmHg 94%
    12:00 -6°C° 0 mm 2 m/s 748 mmHg 93%
    13:00 -6°C° 0 mm 2 m/s 748 mmHg 92%
    14:00 -6°C° 0 mm 3 m/s 747 mmHg 92%
    15:00 -6°C° 0 mm 3 m/s 746 mmHg 93%
    16:00 -6°C° 0 mm 3 m/s 746 mmHg 93%
    17:00 -6°C° 0 mm 3 m/s 745 mmHg 94%
    18:00 -6°C° 0 mm 3 m/s 745 mmHg 94%
    19:00 -6°C° 0 mm 3 m/s 744 mmHg 95%
    20:00 -5°C° 0 mm 3 m/s 744 mmHg 95%
    21:00 -5°C° 0.2 mm 3 m/s 743 mmHg 95%
    22:00 -5°C° 0.2 mm 3 m/s 743 mmHg 95%
    23:00 -4°C° 0.2 mm 3 m/s 743 mmHg 96%
    Mostrar mais